This is the latest recevied weather packets stored in our database for station/object K0JRF-13. If no packets are shown the sender has not sent any weather packets the latest 10 day(s).
| Time | Temp. | Humidity | Pressure | Rain* | Wind** | Luminosity | Snow |
|---|---|---|---|---|---|---|---|
| 1787768848 | 31.67° C | 44% | 1015.9 hPa | - | - | - | - |
| 1787768248 | 31.11° C | 45% | 1016.3 hPa | - | - | - | - |
| 1787767648 | 31.67° C | 47% | 1015.9 hPa | - | - | - | - |
| 1787767047 | 31.11° C | 46% | 1015.9 hPa | - | - | - | - |
| 1787766448 | 30.56° C | 49% | 1016.3 hPa | - | - | - | - |
| 1787765848 | 30.56° C | 50% | 1016.3 hPa | - | - | - | - |
| 1787765248 | 31.11° C | 49% | 1016.3 hPa | - | - | - | - |
| 1787764648 | 31.11° C | 49% | 1016.6 hPa | - | - | - | - |
| 1787764048 | 31.67° C | 50% | 1016.3 hPa | - | - | - | - |
| 1787763447 | 30° C | 49% | 1016.3 hPa | - | - | - | - |
| 1787762848 | 29.44° C | 49% | 1016.6 hPa | - | - | - | - |
| 1787762247 | 29.44° C | 48% | 1016.9 hPa | - | - | - | - |
| 1787761648 | 28.89° C | 51% | 1016.9 hPa | - | - | - | - |
| 1787761048 | 28.33° C | 56% | 1016.9 hPa | - | - | - | - |
| 1787760448 | 28.33° C | 56% | 1016.9 hPa | - | - | - | - |
| 1787759848 | 26.11° C | 56% | 1016.6 hPa | - | - | - | - |
| 1787759248 | 26.11° C | 53% | 1016.9 hPa | - | - | - | - |
| 1787758648 | 26.67° C | 56% | 1016.9 hPa | - | - | - | - |
| 1787758048 | 26.67° C | 57% | 1016.9 hPa | - | - | - | - |
| 1787757448 | 25° C | 61% | 1016.6 hPa | - | - | - | - |
| 1787756847 | 24.44° C | 65% | 1016.9 hPa | - | - | - | - |
| 1787756248 | 24.44° C | 65% | 1017.3 hPa | - | - | - | - |
| 1787755648 | 23.33° C | 66% | 1016.9 hPa | - | - | - | - |
| 1787755048 | 23.33° C | 66% | 1016.9 hPa | - | - | - | - |
| 1787754448 | 22.78° C | 69% | 1016.9 hPa | - | - | - | - |
* Rain since midnight (hover to see other rain measurements)
** Current wind speed in m/s (hover to see current wind gust speed)